Location: Lucerne Valley
(34.4439°N, 116.9669°E)
Time: 16:36:25
(UTC-07:00)

Vanguard 1 - Visible Passes

Search period start: 21 June 2018 00:00
Search period end: 01 July 2018 00:00
Orbit: 650 x 3833 km, 34.3° (Epoch: 21 June)

Date Brightness Start Highest point End Pass type
(mag) Time Alt. Az. Time Alt. Az. Time Alt. Az.
22 Jun 12.4 11:50:01 10° SE 11:52:16 11° SE 11:54:48 10° ESE visible
23 Jun 12.1 12:08:03 11° S 12:12:25 19° SE 12:19:00 10° E visible
24 Jun 11.8 12:27:53 14° S 12:32:41 28° SE 12:41:32 10° E visible
25 Jun 11.6 12:47:43 14° SSW 12:53:06 38° SE 13:03:35 10° E visible
26 Jun 11.3 13:07:32 12° SW 13:13:41 51° SSE 13:25:24 10° ENE visible
27 Jun 11.9 11:14:37 15° SE 11:15:20 15° SE 11:19:21 10° E visible
27 Jun 11.1 13:27:41 10° SW 13:34:28 63° SSE 13:47:08 10° ENE visible
28 Jun 11.4 11:34:24 22° SSE 11:35:39 23° SE 11:41:59 10° E visible
29 Jun 10.9 11:54:10 28° S 11:56:05 34° SE 12:03:56 10° E visible
30 Jun 10.7 12:13:56 29° SSW 12:16:40 47° SSE 12:25:37 10° E visible
